Hourly Data Report for October 30, 2016

All times are specified in Local Standard Time (LST). Add 1 hour to adjust for Daylight Saving Time where and when it is observed.

KUGLUKTUK A
NUNAVUT

67°49'00.000" N
115°08'38.000" W
22.60 m
2300903
71938
YCO

Download Data

Hourly Data (October 2016)
Hourly Data Report for October 30, 2016
Temp Definition
°C
Dew Point Temp Definition
°C
Rel Hum Definition
%
Wind Dir Definition
10's deg

Wind Spd Definition
km/h
Visibility Definition
km
Stn Press Definition
kPa
Hmdx Definition


Wind Chill Definition


Weather Definition


TIME
00:00 Legend Double Dagger -16.3 -19.8 75 14 9 24.1 102.20   -22 Ice Crystals
01:00 Legend Double Dagger -16.2 -19.7 75 20 4 24.1 102.21   -19 Ice Crystals
02:00 Legend Double Dagger -16.1 -19.1 78 18 6 24.1 102.18   -21 Ice Crystals
03:00 Legend Double Dagger -17.2 -19.6 82 16 8 24.1 102.15   -23 Ice Crystals
04:00 Legend Double Dagger -17.2 -19.6 82 15 9 24.1 102.12   -23 Ice Crystals
05:00 Legend Double Dagger -15.9 -18.8 79 17 8 24.1 102.09   -21 Ice Crystals
06:00 Legend Double Dagger -16.2 -19.0 79 15 7 24.1 102.05   -21 Ice Crystals
07:00 Legend Double Dagger -19.7 -21.5 86 14 10 24.1 102.03   -27 Ice Crystals
08:00 Legend Double Dagger -17.4 -19.6 83 18 8 24.1 102.01   -23 Ice Crystals
09:00 Legend Double Dagger -20.1 -22.2 84 20 13 24.1 102.01   -29 LegendNANA
10:00 Legend Double Dagger -19.1 -21.3 83 18 11 24.1 102.02   -27 LegendNANA
11:00 Legend Double Dagger -18.4 -20.9 81 18 7 24.1 102.01   -24 Mainly Clear
12:00 Legend Double Dagger -17.9 -20.9 78 36 1 24.1 101.97   -19 LegendNANA
13:00 Legend Double Dagger -17.6 -20.9 76 19 9 24.1 101.99   -24 LegendNANA
14:00 Legend Double Dagger -16.1 -19.7 74 19 4 24.1 102.00   -19 Mainly Clear
15:00 Legend Double Dagger -15.8 -18.8 78 24 8 24.1 102.02   -21 LegendNANA
16:00 Legend Double Dagger -15.9 -18.5 81 36 1 24.1 102.00   -17 LegendNANA
17:00 Legend Double Dagger -18.4 -21.3 78 22 10 24.1 102.01   -25 Mostly Cloudy
18:00 Legend Double Dagger -17.9 -20.4 81 22 16 24.1 101.98   -27 LegendNANA
19:00 Legend Double Dagger -19.7 -22.0 82 28 5 24.1 102.01   -24 Ice Crystals
20:00 Legend Double Dagger -19.7 -21.8 84 26 9 24.1 102.03   -26 Ice Crystals
21:00 Legend Double Dagger -21.8 -24.1 82 22 19 24.1 102.03   -32 Ice Crystals
22:00 Legend Double Dagger -20.4 -22.4 84 23 17 24.1 102.07   -30 Ice Crystals
23:00 Legend Double Dagger -19.3 -21.4 84 28 4 24.1 102.09   -23 Ice Crystals

Notes on Data Quality.

Legend

  • E = Estimated
  • M = Missing
  • NA = Not Available
  • ‡ = Partner data that is not subject to review by the National Climate Archives
Date modified: